Location: Brahman Valley
(40.6513°N, 111.8855°W)
Time: 21:27:37
(UTC+00:00)

Vanguard 2 - Pass Details

Date: 18 May 2021
Orbit: 552 x 2937 km, 32.9° (Epoch: 14 June)

Event Time Altitude Azimuth Distance (km) Brightness Sun altitude
Rises 13:25:02 0° 258° (WSW) 4,177 10.6 12.9°
Reaches altitude 10° 13:27:28 10° 254° (WSW) 3,465 10.3 13.3°
Maximum altitude 13:36:34 59° 177° (S) 2,184 10.0 15.0°
Drops below altitude 10° 13:51:18 10° 104° (ESE) 5,400 13.2 17.7°
Sets 13:56:07 0° 101° (E) 6,617 13.6 18.6°
